FW2284 Weather Reports


Display with metric or nautical units.
time (UTC)temp
F
wind
direction
speed
MPH
gust
MPH
rain 1hr
in
rain 24hr
in
rain mn
in
humidity
%
barometer
mb
20260507040034 43 338 0.0 1.0 0.00 0.10 0.09 80 1017.6
20260507034538 42 338 0.0 0.0 0.00 0.10 0.09 84 1017.6
20260507033040 42 338 0.0 0.0 0.00 0.10 0.09 82 1017.7
20260507031529 43 338 0.0 0.0 0.00 0.10 0.09 82 1017.8
20260507030028 44 338 0.0 0.0 0.00 0.11 0.09 79 1017.7
20260507024526 45 338 0.0 0.0 0.00 0.11 0.09 76 1017.7
20260507023027 45 338 0.0 0.0 0.00 0.11 0.09 73 1017.7
20260507021523 47 338 0.0 0.0 0.00 0.11 0.09 69 1017.6
20260507020023 49 338 0.0 0.0 0.00 0.13 0.09 64 1017.6
20260507014522 50 320 0.0 3.0 0.00 0.13 0.09 60 1017.2
20260507013022 50 340 0.0 0.0 0.00 0.13 0.09 61 1017.0
20260507011522 52 340 0.0 1.0 0.00 0.13 0.09 55 1016.8
20260507010025 54 332 1.0 3.0 0.00 0.16 0.09 53 1016.4
20260507004529 56 323 0.0 3.0 0.00 0.16 0.09 49 1016.3
20260507003019 57 328 1.0 6.0 0.00 0.16 0.09 46 1016.3
20260507001520 58 303 3.0 6.0 0.00 0.16 0.09 45 1016.4
20260507000018 59 328 5.0 9.0 0.00 0.27 0.09 42 1016.3
20260506234518 59 326 6.0 10.0 0.00 0.27 0.09 41 1016.2
20260506233017 59 349 2.0 7.0 0.00 0.27 0.09 44 1016.2
20260506231516 59 326 1.0 6.0 0.00 0.27 0.09 45 1016.3
20260506230015 61 125 0.0 4.0 0.00 0.28 0.09 46 1016.3
20260506224516 59 339 4.0 11.0 0.00 0.28 0.09 46 1016.4
20260506223017 59 1 1.0 5.0 0.00 0.28 0.09 47 1016.4
20260506221515 59 354 2.0 6.0 0.00 0.28 0.09 45 1016.5
20260506220029 58 320 3.0 7.0 0.00 0.28 0.09 43 1016.5
20260506214514 60 336 3.0 10.0 0.00 0.28 0.09 43 1016.5
20260506213012 62 316 1.0 8.0 0.00 0.28 0.09 40 1016.5
20260506211510 60 328 4.0 8.0 0.00 0.28 0.09 43 1016.6
20260506210013 59 35 2.0 8.0 0.00 0.28 0.09 46 1016.6
20260506204509 61 313 3.0 10.0 0.00 0.28 0.09 46 1017.0
20260506203008 60 335 4.0 7.0 0.00 0.28 0.09 43 1016.9
20260506201505 60 4 2.0 9.0 0.00 0.28 0.09 50 1017.2
20260506200005 59 301 4.0 8.0 0.00 0.34 0.09 47 1017.2
20260506194504 59 293 2.0 8.0 0.00 0.34 0.09 46 1017.2
20260506193003 58 351 3.0 9.0 0.00 0.34 0.09 48 1017.3
20260506191503 59 299 3.0 8.0 0.00 0.34 0.09 48 1017.4
20260506190005 58 28 4.0 12.0 0.00 0.38 0.09 50 1017.4
20260506184502 59 310 8.0 12.0 0.00 0.38 0.09 46 1017.1
20260506183005 58 340 5.0 12.0 0.00 0.38 0.09 47 1017.1
20260506181604 59 283 5.0 11.0 0.00 0.38 0.09 45 1017.4
20260506180116 58 67 3.0 11.0 0.00 0.38 0.09 50 1017.6
20260506174558 59 321 3.0 8.0 0.00 0.40 0.09 49 1017.6
20260506173129 58 53 2.0 10.0 0.00 0.40 0.09 50 1017.6
20260506171555 58 319 1.0 12.0 0.00 0.40 0.09 55 1017.7
20260506170052 57 308 6.0 10.0 0.00 0.40 0.09 53 1017.6
20260506164551 57 326 2.0 8.0 0.00 0.40 0.09 55 1017.5
20260506163052 56 304 3.0 8.0 0.00 0.40 0.09 62 1017.3
20260506161547 55 32 4.0 9.0 0.00 0.40 0.09 72 1017.1
20260506160038 53 307 3.0 7.0 0.00 0.40 0.09 77 1017.1
20260506154534 52 295 2.0 6.0 0.00 0.40 0.09 80 1017.1
20260506153030 51 314 2.0 4.0 0.00 0.40 0.09 80 1017.0
20260506151525 51 331 2.0 4.0 0.00 0.40 0.09 81 1016.6
20260506150023 50 11 0.0 5.0 0.00 0.40 0.09 83 1016.4
20260506144522 50 321 2.0 4.0 0.00 0.40 0.09 83 1016.3
20260506143023 49 348 1.0 4.0 0.00 0.40 0.09 88 1016.2
20260506141515 48 314 0.0 4.0 0.00 0.40 0.09 89 1016.2
20260506140013 48 317 1.0 4.0 0.00 0.40 0.09 91 1016.1
20260506134508 48 307 3.0 6.0 0.00 0.40 0.09 91 1016.4
20260506133004 47 295 3.0 5.0 0.00 0.40 0.09 92 1016.3
20260506131506 47 309 3.0 7.0 0.00 0.40 0.09 93 1016.2
20260506130100 47 320 2.0 6.0 0.00 0.40 0.09 93 1016.2
20260506124557 46 279 2.0 4.0 0.00 0.48 0.09 95 1016.0
20260506123055 46 316 1.0 3.0 0.00 0.48 0.09 95 1015.7
20260506121553 46 224 0.0 5.0 0.00 0.48 0.09 95 1015.8
20260506120052 46 288 1.0 4.0 0.00 0.48 0.09 95 1015.5
20260506114550 45 228 2.0 4.0 0.00 0.60 0.09 95 1015.3
20260506113035 45 203 1.0 4.0 0.00 0.60 0.09 95 1015.4
20260506111532 45 252 0.0 4.0 0.01 0.60 0.09 95 1015.2
20260506110031 45 248 1.0 4.0 0.01 0.60 0.09 95 1014.8
20260506104530 45 206 1.0 3.0 0.01 0.60 0.09 95 1014.3
20260506103026 45 274 0.0 3.0 0.01 0.60 0.09 95 1013.5
20260506101523 45 195 0.0 2.0 0.01 0.59 0.08 95 1013.0
20260506100021 45 217 0.0 1.0 0.02 0.59 0.08 95 1013.1
20260506094521 45 257 1.0 3.0 0.02 0.59 0.08 95 1013.4
20260506093025 45 282 2.0 5.0 0.02 0.59 0.08 95 1013.6
20260506091521 45 292 1.0 5.0 0.01 0.57 0.07 95 1013.6
20260506090022 45 228 1.0 3.0 0.00 0.56 0.06 95 1013.6
20260506084531 45 286 1.0 3.0 0.00 0.56 0.06 95 1013.5
20260506083017 45 251 1.0 2.0 0.00 0.56 0.06 95 1013.2
20260506081517 45 276 1.0 3.0 0.00 0.56 0.06 94 1013.5
20260506073013 45 295 1.0 2.0 0.01 0.56 0.06 95 1013.1
20260506071512 45 315 0.0 1.0 0.02 0.56 0.06 95 1013.2
20260506061507 45 229 0.0 1.0 0.04 0.55 0.04 95 1013.2
20260506044601 44 328 0.0 2.0 0.01 0.51 0.51 95 1012.6
20260506043102 44 354 0.0 2.0 0.01 0.51 0.51 95 1012.6
20260506041557 44 340 0.0 2.0 0.00 0.50 0.50 95 1012.6